Precipitable_Water
0.54 0.55 0.53 0.49 0.45 0.47 0.45 0.43 0.37 0.31 0.34 0.39 0.43 0.45 0.47 0.49 0.44 0.37 0.37 0.40 0.41 0.41 0.48 0.47 0.46 0.54 0.55 0.53 0.58 0.59 0.58 0.62 0.62 0.62 0.66 0.68 0.72 0.73 0.73 0.73 0.73 0.76 0.75 0.75
0.46 0.54 0.52 0.46 0.45 0.47 0.45 0.43 0.42 0.41 0.35 0.48 0.47 0.46 0.45 0.41 0.35 0.35 0.39 0.40 0.41 0.46 0.48 0.52 0.56 0.55 0.56 0.55 0.50 0.50 0.49 0.48 0.56 0.56 0.56 0.64 0.65 0.67 0.68 0.67 0.69 0.71 0.72 0.72
0.38 0.50 0.47 0.37 0.40 0.41 0.40 0.43 0.42 0.34 0.36 0.45 0.43 0.43 0.39 0.34 0.36 0.37 0.40 0.41 0.43 0.45 0.46 0.44 0.50 0.58 0.60 0.52 0.53 0.54 0.55 0.55 0.51 0.54 0.61 0.63 0.64 0.67 0.64 0.65 0.65 0.63 0.66 0.69
0.41 0.44 0.29 0.37 0.44 0.43 0.39 0.38 0.40 0.38 0.38 0.41 0.42 0.37 0.36 0.39 0.36 0.38 0.41 0.41 0.41 0.44 0.45 0.45 0.49 0.53 0.54 0.54 0.54 0.51 0.51 0.54 0.54 0.54 0.54 0.56 0.60 0.61 0.64 0.65 0.64 0.63 0.63 0.64
0.37 0.36 0.37 0.37 0.39 0.35 0.32 0.29 0.33 0.31 0.32 0.31 0.32 0.34 0.35 0.36 0.38 0.41 0.43 0.43 0.43 0.41 0.41 0.46 0.52 0.56 0.60 0.66 0.54 0.50 0.43 0.51 0.52 0.53 0.56 0.54 0.57 0.60 0.64 0.65 0.65 0.63 0.64 0.63
0.41 0.32 0.28 0.36 0.40 0.42 0.41 0.27 0.38 0.37 0.32 0.32 0.35 0.26 0.27 0.33 0.36 0.39 0.40 0.38 0.38 0.40 0.40 0.40 0.46 0.57 0.62 0.69 0.54 0.43 0.43 0.45 0.49 0.49 0.49 0.54 0.59 0.60 0.63 0.65 0.65 0.66 0.67 0.65
0.39 0.34 0.37 0.44 0.44 0.42 0.26 0.27 0.36 0.35 0.35 0.34 0.29 0.30 0.32 0.32 0.32 0.33 0.34 0.39 0.41 0.41 0.39 0.39 0.46 0.57 0.60 0.62 0.53 0.47 0.45 0.46 0.49 0.51 0.50 0.54 0.59 0.63 0.63 0.64 0.65 0.65 0.66 0.64
0.40 0.33 0.29 0.46 0.43 0.35 0.40 0.44 0.41 0.39 0.36 0.33 0.31 0.31 0.32 0.35 0.30 0.30 0.31 0.32 0.34 0.38 0.39 0.39 0.50 0.59 0.62 0.63 0.54 0.49 0.45 0.46 0.51 0.53 0.54 0.56 0.59 0.62 0.64 0.65 0.61 0.61 0.60 0.58
0.40 0.37 0.46 0.47 0.45 0.47 0.46 0.41 0.37 0.34 0.32 0.29 0.25 0.26 0.26 0.24 0.25 0.25 0.25 0.30 0.33 0.37 0.36 0.37 0.49 0.63 0.62 0.61 0.54 0.48 0.43 0.44 0.51 0.56 0.59 0.63 0.60 0.62 0.62 0.61 0.59 0.57 0.57 0.56
0.41 0.45 0.46 0.46 0.46 0.45 0.42 0.34 0.32 0.29 0.24 0.23 0.22 0.22 0.23 0.25 0.26 0.27 0.28 0.30 0.35 0.39 0.38 0.36 0.53 0.62 0.69 0.57 0.55 0.48 0.43 0.43 0.47 0.49 0.56 0.61 0.62 0.62 0.60 0.57 0.55 0.54 0.54 0.54
0.41 0.43 0.42 0.40 0.37 0.34 0.32 0.30 0.27 0.25 0.24 0.25 0.25 0.25 0.26 0.26 0.27 0.29 0.33 0.37 0.42 0.41 0.48 0.40 0.51 0.60 0.66 0.55 0.51 0.45 0.44 0.43 0.42 0.47 0.49 0.52 0.59 0.61 0.61 0.61 0.59 0.55 0.54 0.54
0.34 0.39 0.34 0.31 0.31 0.31 0.28 0.27 0.27 0.26 0.26 0.27 0.28 0.28 0.29 0.29 0.30 0.37 0.40 0.41 0.39 0.42 0.51 0.46 0.51 0.56 0.66 0.62 0.57 0.49 0.46 0.44 0.42 0.43 0.45 0.47 0.49 0.53 0.61 0.62 0.62 0.61 0.60 0.58
0.33 0.33 0.29 0.28 0.29 0.29 0.27 0.27 0.29 0.32 0.31 0.29 0.30 0.33 0.35 0.37 0.40 0.40 0.38 0.38 0.41 0.48 0.50 0.49 0.53 0.59 0.65 0.66 0.60 0.52 0.49 0.47 0.45 0.43 0.42 0.43 0.45 0.46 0.49 0.57 0.60 0.60 0.60 0.59
0.27 0.26 0.25 0.26 0.26 0.36 0.35 0.34 0.33 0.33 0.34 0.36 0.39 0.41 0.40 0.37 0.39 0.39 0.38 0.44 0.49 0.49 0.53 0.54 0.56 0.55 0.60 0.63 0.60 0.55 0.54 0.51 0.47 0.45 0.43 0.42 0.42 0.43 0.45 0.45 0.49 0.52 0.57 0.57
0.30 0.32 0.32 0.35 0.34 0.33 0.33 0.31 0.30 0.31 0.36 0.38 0.41 0.38 0.36 0.35 0.36 0.39 0.44 0.49 0.52 0.48 0.49 0.53 0.55 0.55 0.59 0.59 0.57 0.55 0.52 0.51 0.49 0.48 0.47 0.44 0.43 0.42 0.42 0.43 0.44 0.47 0.52 0.54
0.30 0.29 0.29 0.25 0.27 0.31 0.31 0.30 0.29 0.31 0.33 0.34 0.34 0.36 0.37 0.38 0.39 0.40 0.43 0.46 0.44 0.44 0.49 0.50 0.51 0.55 0.58 0.57 0.55 0.55 0.54 0.54 0.52 0.49 0.47 0.44 0.43 0.41 0.41 0.41 0.41 0.42 0.44 0.46
0.24 0.24 0.27 0.29 0.31 0.31 0.32 0.33 0.32 0.31 0.32 0.32 0.32 0.34 0.35 0.35 0.35 0.36 0.38 0.42 0.45 0.45 0.47 0.48 0.50 0.54 0.56 0.57 0.55 0.54 0.55 0.54 0.51 0.48 0.46 0.45 0.43 0.41 0.41 0.41 0.42 0.42 0.44 0.46
0.26 0.32 0.34 0.35 0.35 0.35 0.34 0.33 0.32 0.31 0.30 0.31 0.32 0.33 0.32 0.32 0.32 0.33 0.35 0.38 0.39 0.41 0.43 0.46 0.48 0.50 0.52 0.53 0.54 0.53 0.50 0.48 0.47 0.46 0.45 0.43 0.43 0.43 0.42 0.42 0.42 0.43 0.44 0.46
0.31 0.32 0.35 0.38 0.39 0.37 0.33 0.32 0.33 0.33 0.32 0.31 0.31 0.31 0.32 0.33 0.34 0.34 0.35 0.35 0.35 0.36 0.42 0.46 0.48 0.48 0.48 0.49 0.49 0.48 0.47 0.46 0.45 0.45 0.44 0.43 0.42 0.43 0.42 0.42 0.42 0.43 0.44 0.44
0.31 0.34 0.37 0.38 0.39 0.35 0.31 0.30 0.30 0.29 0.31 0.31 0.31 0.30 0.31 0.32 0.33 0.32 0.33 0.32 0.34 0.37 0.42 0.44 0.46 0.46 0.47 0.48 0.49 0.48 0.47 0.46 0.44 0.44 0.43 0.42 0.42 0.41 0.41 0.41 0.42 0.42 0.42 0.43
0.30 0.29 0.28 0.27 0.28 0.31 0.32 0.31 0.30 0.28 0.29 0.30 0.29 0.28 0.30 0.32 0.33 0.33 0.31 0.30 0.34 0.37 0.39 0.41 0.43 0.45 0.46 0.47 0.47 0.46 0.45 0.44 0.43 0.42 0.42 0.42 0.41 0.41 0.41 0.41 0.41 0.41 0.40 0.41
0.28 0.27 0.26 0.25 0.25 0.25 0.26 0.28 0.28 0.26 0.27 0.28 0.29 0.30 0.29 0.30 0.31 0.32 0.33 0.32 0.35 0.37 0.38 0.38 0.40 0.42 0.43 0.44 0.44 0.43 0.42 0.42 0.41 0.41 0.41 0.40 0.40 0.39 0.38 0.38 0.37 0.38 0.38 0.38
0.27 0.27 0.26 0.25 0.24 0.23 0.24 0.24 0.25 0.25 0.24 0.24 0.25 0.26 0.28 0.30 0.31 0.29 0.28 0.34 0.36 0.36 0.35 0.36 0.38 0.39 0.39 0.40 0.40 0.40 0.39 0.39 0.38 0.38 0.38 0.38 0.37 0.37 0.36 0.35 0.33 0.33 0.32 0.31
0.26 0.26 0.25 0.24 0.24 0.24 0.22 0.24 0.25 0.25 0.23 0.22 0.23 0.26 0.27 0.28 0.30 0.33 0.33 0.34 0.34 0.34 0.34 0.35 0.35 0.36 0.37 0.36 0.36 0.36 0.36 0.36 0.36 0.35 0.35 0.35 0.33 0.31 0.29 0.28 0.26 0.26 0.25 0.25
0.25 0.25 0.24 0.23 0.22 0.21 0.20 0.19 0.19 0.19 0.20 0.23 0.23 0.24 0.27 0.30 0.29 0.29 0.31 0.31 0.31 0.32 0.32 0.33 0.33 0.33 0.33 0.33 0.33 0.32 0.32 0.33 0.33 0.33 0.31 0.29 0.27 0.26 0.24 0.23 0.23 0.22 0.22 0.22
0.21 0.20 0.19 0.19 0.17 0.17 0.17 0.18 0.18 0.20 0.23 0.26 0.26 0.26 0.27 0.28 0.28 0.28 0.28 0.29 0.29 0.29 0.29 0.30 0.30 0.31 0.30 0.30 0.30 0.30 0.30 0.30 0.29 0.27 0.26 0.25 0.24 0.23 0.22 0.22 0.21 0.21 0.21 0.22
0.18 0.17 0.17 0.16 0.17 0.18 0.19 0.20 0.20 0.19 0.19 0.23 0.28 0.29 0.27 0.26 0.26 0.26 0.25 0.25 0.25 0.26 0.26 0.27 0.28 0.28 0.27 0.27 0.27 0.27 0.27 0.27 0.26 0.25 0.24 0.23 0.22 0.21 0.21 0.20 0.21 0.22 0.22 0.22
Wind_Speed
38 37 36 38 40 37 37 37 36 44 41 38 36 36 36 39 39 37 35 35 35 36 35 37 33 33 35 36 34 35 35 33 30 28 25 25 24 23 22 22 21 20 19 19
39 36 37 41 43 41 42 42 43 42 48 37 38 36 38 36 34 34 35 35 35 34 35 34 35 34 36 34 36 36 34 31 28 25 23 23 22 21 22 22 22 21 21 22
35 32 34 38 39 42 42 39 37 39 40 35 35 34 33 31 32 35 35 35 36 36 36 38 38 36 35 38 34 32 29 27 24 23 22 22 22 21 21 20 21 22 24 25
31 29 29 35 34 32 33 34 33 37 37 34 33 31 29 31 34 34 34 36 38 39 42 42 41 39 37 33 30 27 24 22 21 20 20 21 21 21 21 21 21 21 23 25
28 30 36 39 31 27 28 32 30 29 28 28 28 29 31 32 31 33 35 37 39 41 41 41 39 37 33 28 23 22 22 20 20 20 20 21 21 22 22 22 22 22 23 24
27 27 28 23 24 24 28 32 29 29 28 28 28 30 31 31 33 36 39 41 41 41 40 40 39 36 29 26 22 21 21 21 21 21 20 20 20 20 21 21 21 21 20 23
33 33 32 32 25 23 24 22 22 23 25 27 29 32 34 37 38 40 41 41 41 39 40 39 38 31 26 28 21 21 20 21 21 19 19 20 20 20 19 18 17 17 17 18
32 30 32 28 23 26 23 23 24 26 28 31 33 36 36 38 40 41 41 42 42 41 39 36 31 24 23 19 20 18 18 18 17 17 18 18 17 15 14 14 12 15 15 16
28 27 26 24 24 24 24 26 28 31 32 35 37 37 39 40 40 41 41 40 40 37 37 31 26 23 23 18 16 15 15 14 14 14 13 13 12 11 12 11 12 11 12 13
26 30 27 24 25 27 28 30 33 34 35 35 37 37 38 39 39 38 38 38 36 32 30 27 21 20 16 16 15 14 13 12 12 12 12 12 10 11 11 11 12 12 12 14
30 30 27 27 29 30 32 32 33 33 34 35 36 37 38 38 36 35 34 32 29 27 25 22 21 18 17 13 13 13 11 11 10 10 9 9 10 10 11 12 12 12 14 14
26 25 27 28 29 31 31 32 34 35 36 35 36 37 36 35 33 30 29 28 27 24 23 22 21 22 22 18 15 13 12 11 11 10 9 10 9 9 12 14 14 14 15 16
28 29 30 29 30 32 34 35 35 35 35 36 35 34 32 30 27 26 26 25 23 21 21 17 15 14 6 12 13 13 13 12 12 12 11 12 12 11 11 12 14 15 16 17
25 26 28 29 30 29 32 33 35 36 36 35 32 30 28 26 26 25 24 21 21 19 17 16 19 15 14 14 13 14 15 14 13 14 13 14 14 15 14 13 13 15 16 16
22 24 26 30 31 33 33 33 33 31 30 29 27 25 23 22 22 21 20 20 18 18 18 16 13 14 15 16 16 17 16 16 16 16 16 17 17 17 17 17 17 15 16 17
26 28 30 32 32 32 31 28 27 26 24 21 20 18 17 17 18 19 19 19 17 17 17 19 19 19 19 18 17 17 17 17 18 18 19 19 19 19 19 19 19 19 19 19
27 28 27 26 26 25 24 23 22 21 19 17 15 15 15 16 17 17 18 17 17 17 17 17 18 19 19 19 19 19 18 19 19 19 19 19 19 19 19 19 20 20 20 21
23 22 23 24 23 22 21 20 19 18 16 15 15 15 15 15 16 17 17 16 16 16 17 18 18 18 18 18 18 18 19 20 19 18 18 18 17 17 17 18 19 20 20 21
20 20 20 20 20 19 18 18 17 16 16 16 16 17 16 16 15 15 15 14 14 15 14 15 16 18 19 19 20 20 20 19 18 17 16 16 15 14 14 15 16 17 18 19
17 17 17 16 16 18 18 18 18 18 18 18 18 18 17 17 16 15 15 13 13 13 13 13 12 12 13 14 15 15 15 15 14 14 13 13 12 11 11 11 12 12 13 14
15 15 15 16 16 17 19 20 20 19 20 20 20 20 20 19 19 18 17 16 15 14 13 12 11 11 11 11 11 11 11 11 12 11 11 11 10 9 8 7 7 7 7 7
16 17 18 18 19 20 21 21 22 22 23 23 24 24 23 23 22 20 20 19 17 16 15 14 13 12 11 11 10 10 9 10 10 10 10 10 9 9 8 8 7 7 6 6
20 21 22 22 24 25 26 27 28 28 28 29 28 28 27 27 26 25 24 22 21 19 18 17 15 13 13 12 12 12 11 11 11 10 10 10 10 10 10 10 10 10 10 10
22 24 25 27 28 29 30 31 31 32 33 33 32 33 32 31 29 27 25 24 23 22 21 20 19 17 16 15 15 14 13 13 12 12 12 12 12 12 12 12 11 11 11 11
23 25 27 28 29 29 31 31 31 31 32 31 31 30 30 30 31 28 27 27 25 24 23 22 21 20 20 19 18 16 16 15 15 14 14 14 13 14 13 13 13 13 13 13
25 26 27 29 30 30 30 30 30 29 29 29 28 27 26 25 25 25 26 25 25 24 24 23 23 22 21 21 20 19 18 17 17 17 16 16 15 15 15 15 15 15 16 16
25 27 28 29 29 30 30 30 31 31 31 30 29 27 24 24 23 23 22 22 22 21 21 21 22 22 22 21 21 20 20 19 19 19 18 18 17 17 17 17 17 18 19 19
Wind_Direction
270 275 278 278 277 275 273 276 275 284 280 286 286 286 288 290 288 290 292 294 297 299 302 302 295 292 294 297 296 298 297 294 290 288 283 280 280 273 269 265 260 254 247 242
273 275 276 277 275 275 274 275 275 279 282 286 286 286 287 284 287 291 293 297 299 300 301 301 301 297 295 295 299 297 294 290 288 285 282 278 278 275 269 263 258 252 247 242
276 276 279 277 277 272 275 274 277 277 283 285 284 284 283 288 292 293 296 297 299 299 300 301 297 293 292 295 297 296 291 289 283 283 279 278 275 273 269 264 259 254 247 240
278 278 273 281 282 278 277 279 279 279 281 280 281 284 287 290 292 293 295 297 297 297 297 298 295 294 290 289 291 291 290 291 285 283 283 284 274 271 268 266 260 256 249 239
272 270 280 281 283 279 279 281 282 284 284 284 284 288 288 291 292 294 295 295 296 299 299 299 296 293 286 282 285 289 287 287 287 287 285 286 278 271 269 266 262 258 252 238
270 272 276 291 293 287 274 281 280 282 286 283 285 286 288 291 294 295 295 295 296 296 299 300 298 290 279 263 280 285 287 286 287 286 285 285 282 276 270 267 263 255 244 236
265 269 277 278 276 283 272 286 287 289 287 287 285 287 291 293 293 293 296 295 296 295 297 299 299 284 271 263 274 282 285 288 287 284 287 285 284 277 268 264 258 244 238 231
266 271 270 272 267 271 279 281 284 285 287 286 288 290 291 293 294 295 296 295 296 295 295 297 293 276 259 260 272 277 282 287 285 286 290 288 281 272 260 258 259 232 231 231
264 271 274 284 267 275 279 281 286 288 290 290 291 292 294 295 295 296 296 296 297 293 292 290 284 269 259 252 267 273 282 288 285 288 293 296 273 271 251 250 239 234 232 227
268 269 269 270 271 273 279 284 287 288 290 291 292 293 295 296 296 296 297 297 296 293 289 282 273 265 264 249 260 274 274 279 286 290 292 296 272 261 253 247 242 238 231 227
267 268 273 272 277 281 283 285 288 289 290 291 292 293 294 295 296 298 299 298 298 293 287 275 265 268 244 249 261 262 268 277 283 284 292 298 283 261 252 250 245 239 234 229
267 269 273 276 279 282 283 286 289 290 291 290 290 292 295 296 295 297 300 298 294 290 285 268 268 263 268 254 255 258 260 269 275 277 282 290 292 284 263 253 249 245 238 232
268 272 275 277 279 282 283 286 289 291 290 291 290 294 296 296 295 297 300 298 295 291 285 265 262 260 248 241 248 256 261 263 267 271 279 281 283 285 273 263 253 247 241 237
270 274 276 278 282 285 288 289 290 289 289 289 292 293 293 292 291 292 297 295 291 287 283 274 260 254 262 257 261 262 261 264 265 269 276 281 277 274 271 266 260 251 244 238
273 277 281 284 285 286 288 290 290 291 292 291 291 292 291 289 291 292 292 293 290 284 273 264 271 262 268 265 262 262 262 261 265 268 275 280 280 272 268 262 258 254 247 243
277 280 284 285 284 285 286 287 289 292 292 292 291 291 293 294 294 293 293 290 287 287 279 266 266 264 264 266 264 263 264 264 267 271 274 278 277 271 265 261 257 254 250 247
279 284 285 283 283 285 283 284 287 290 290 288 290 293 294 295 297 297 296 291 286 283 282 277 270 268 265 262 264 264 264 267 270 273 273 275 274 268 263 259 257 256 254 249
280 280 284 282 280 280 282 283 284 284 286 286 287 290 292 294 297 301 299 296 290 285 284 280 273 267 264 265 264 263 268 269 270 271 270 272 273 267 263 260 259 258 255 252
280 281 281 283 278 275 277 281 282 283 283 284 284 286 289 290 295 299 301 299 298 295 291 288 279 270 267 267 266 266 265 266 267 267 267 266 267 267 264 263 262 260 257 253
279 281 281 286 274 272 275 279 280 280 279 280 282 282 283 284 289 292 297 298 301 300 298 294 290 281 272 268 268 266 262 261 261 260 260 260 263 262 266 265 263 261 257 253
279 279 278 277 277 278 274 275 279 280 278 277 278 279 280 280 282 285 287 287 291 294 294 292 289 282 277 272 271 267 263 259 257 256 255 254 252 255 257 257 259 258 255 251
278 278 278 279 277 278 279 278 277 278 277 276 276 275 275 276 275 276 280 281 281 283 284 284 283 280 275 271 267 264 262 260 257 254 252 248 247 248 253 254 255 256 255 253
281 282 282 283 282 280 280 279 277 276 276 275 274 273 272 271 270 270 272 273 272 274 276 276 274 273 271 267 266 265 263 259 256 253 251 249 250 252 255 256 257 258 258 259
284 286 286 285 283 282 282 281 279 277 276 274 273 272 270 268 265 267 267 267 266 267 267 268 268 266 266 266 265 264 261 258 255 254 253 254 255 256 256 257 258 260 261 262
289 289 287 286 286 285 286 285 283 281 278 273 273 271 269 267 263 263 263 263 261 261 261 263 262 262 262 262 261 261 259 256 255 255 255 255 255 256 257 258 259 260 262 264
294 293 292 291 289 288 286 285 283 282 281 278 270 269 266 265 262 261 260 259 259 258 259 260 259 259 259 258 257 255 255 255 255 255 255 256 256 257 258 259 261 263 265 268
299 298 297 295 293 290 288 287 285 283 278 274 272 261 262 262 259 258 257 256 256 256 257 257 257 257 256 255 254 253 253 253 254 254 255 256 256 257 259 260 262 266 269 271